Regional Weather Roundup
Issued by NWS Midland/Odessa, TX

Home | Current Version | Previous Version | Text Only | Print | Product List | Glossary On
Versions: 1 2 3 4 5 6 7 8 9 10 11 12 13 14 15 16 17 18 19 20 21 22 23 24 25 26 27 28 29 30 31 32 33 34 35 36 37 38 39 40 41 42 43 44 45 46 47 48 49 50
000
ASUS44 KMAF 230910
RWRMAF
MIDLAND AREA WEATHER ROUNDUP
NATIONAL WEATHER SERVICE MIDLAND TX
400 AM CDT TUE SEP 23 2014

...IN SOUTHWEST TEXAS AND SOUTHEAST NEW MEXICO...

CITY           SKY/WX    TMP DP  RH WIND       PRES   REMARKS
ALPINE         CLOUDY    65  53  65 SW6       30.28F
ANDREWS        FAIR      66  64  94 SE3       30.18F
ARTESIA        NOT AVBL
BIG SPRING     MOCLDY    74  67  77 SE12      30.18F
CARLSBAD       CLEAR     65  32  29 CALM      30.16F
DRYDEN           N/A     73  60  63 N3        30.11F
FORT STOCKTON  PTCLDY    64  57  78 S8        30.15F
GUAD PASS      CLOUDY    62  49  62 NE17        N/A
HOBBS          MOCLDY    64  64 100 CALM      30.21S
MARFA          CLOUDY    61  55  82 CALM      30.27F
MIDLAND AIRPK  NOT AVBL
MIDLAND INTL   MOCLDY    68  63  84 SE7       30.15F
ODESSA         MOCLDY    67  62  84 SE5       30.17F
PECOS          MOCLDY    65  60  84 E3        30.13F
PRESIDIO       FAIR      73  55  52 NE6       30.13F
SEMINOLE       CLOUDY    65  63  94 E5        30.20S
SNYDER         MOCLDY    67  63  86 SE5       30.17F
WINK           PTCLDY    67  61  81 E5        30.13F
$$
...OTHER STATIONS IN TEXAS...

CITY           SKY/WX    TMP DP  RH WIND       PRES   REMARKS
ABILENE        PTCLDY    69  51  52 SE8       30.16F
AMARILLO       MOCLDY    62  57  83 S10       30.20F
AUSTIN         PTCLDY    70  64  81 N7        30.11S
BROWNSVILLE    CLEAR     74  72  93 N3        29.99F
CORPUS CHRISTI MOCLDY    77  74  90 N9        30.03S
DALLAS FTW     PTCLDY    66  52  60 SE7       30.15F
DEL RIO        PTCLDY    77  65  66 E8        30.06F
EL PASO        MOCLDY    68  64  87 CALM      30.19S
HOUSTON INT    PTCLDY    69  57  65 NE7       30.09F
LUBBOCK        CLOUDY    63  58  83 E7        30.19F
SAN ANGELO     PTCLDY    70  66  87 NE3       30.14F
SAN ANTONIO    PTCLDY    75  68  78 E6        30.09F
WACO           CLEAR     63  54  72 CALM      30.14S
WICHITA FALLS  NOT AVBL
$$
...OTHER LOCATIONS IN NEW MEXICO...

CITY           SKY/WX    TMP DP  RH WIND       PRES   REMARKS
ALAMAGORDO     MOCLDY    66  64  94 CALM      30.21F
ALBUQUERQUE    PTCLDY    61  57  87 SE7       30.26S
CANNON AFB     PTCLDY    62  57  86 S2        30.24S FOG
CLOVIS           N/A     63  61  94 S6        30.26S
HOLLOMAN AFB   MOCLDY    66  66 100 SE2       30.19F
ROSWELL        CLOUDY    66  65  96 SE3       30.18F FOG
RUIDOSO        FOG       57  57 100 CALM      30.36F VSB 1/2
SANTA FE       CLOUDY    61  57  87 S3        30.29F
TRUTH OR CONSE LGT RAIN  62  61  96 W7        30.23F
TUCUMCARI      PTCLDY    63  60  90 S8        30.19F
$$



USA.gov is the U.S. government's official web portal to all federal, state and local government web resources and services.